Location: Claflin County Park
(44.8478°N, 87.5507°W)
Time: 17:31:53
(UTC+00:00)

Meteor 2-2 Rocket - Pass Details

Date: 10 December 2025
Orbit: 852 x 927 km, 81.3° (Epoch: 22 January)

Event Time Altitude Azimuth Distance (km) Brightness Sun altitude
Rises 00:22:31 0° 182° (S) 3,435 7.5 -22.8°
Reaches altitude 10° 00:24:57 10° 180° (S) 2,493 6.7 -23.2°
Maximum altitude 00:30:34 72° 97° (E) 900 4.1 -24.2°
Enters shadow 00:32:13 46° 28° (NNE) 1,131 4.5 -24.5°
